| time (UTC) | temp F | wind direction | speed MPH | gust MPH | rain 1hr in | rain 24hr in | rain mn in | humidity % | barometer mb |
| 20260906191211 | 73 | 0 | 0.0 | 1.0 | 0.00 | 0.01 | 0.01 | 89 | 1014.7 |
| 20260906190713 | 73 | 0 | 0.0 | 1.0 | 0.00 | 0.01 | 0.01 | 90 | 1014.8 |
| 20260906190211 | 72 | 0 | 0.0 | 1.0 | 0.00 | 0.01 | 0.01 | 90 | 1014.8 |
| 20260906185710 | 72 | 0 | 0.0 | 2.0 | 0.00 | 0.01 | 0.01 | 90 | 1014.8 |
| 20260906185211 | 72 | 0 | 0.0 | 2.0 | 0.00 | 0.01 | 0.01 | 90 | 1015.0 |
| 20260906184450 | 72 | 0 | 0.0 | 1.0 | 0.00 | 0.01 | 0.01 | 90 | 1015.2 |
| 20260906183951 | 72 | 0 | 0.0 | 1.0 | 0.00 | 0.01 | 0.01 | 89 | 1015.2 |
| 20260906183454 | 73 | 0 | 0.0 | 1.0 | 0.00 | 0.01 | 0.01 | 90 | 1015.3 |
| 20260906182950 | 73 | 0 | 0.0 | 0.0 | 0.00 | 0.01 | 0.01 | 89 | 1015.2 |
| 20260906182450 | 73 | 0 | 0.0 | 1.0 | 0.00 | 0.01 | 0.01 | 90 | 1015.2 |
| 20260906181951 | 73 | 0 | 0.0 | 1.0 | 0.00 | 0.01 | 0.01 | 90 | 1015.2 |
| 20260906181450 | 72 | 0 | 0.0 | 1.0 | 0.00 | 0.01 | 0.01 | 90 | 1015.2 |
| 20260906180950 | 72 | 0 | 0.0 | 1.0 | 0.00 | 0.01 | 0.01 | 90 | 1015.2 |
| 20260906180506 | 72 | 0 | 0.0 | 1.0 | 0.00 | 0.01 | 0.01 | 90 | 1015.3 |
| 20260906175950 | 72 | 0 | 0.0 | 1.0 | 0.00 | 0.02 | 0.01 | 90 | 1015.5 |
| 20260906175450 | 72 | 0 | 0.0 | 1.0 | 0.00 | 0.02 | 0.01 | 91 | 1015.5 |
| 20260906174952 | 71 | 0 | 0.0 | 1.0 | 0.00 | 0.03 | 0.01 | 91 | 1015.5 |
| 20260906174456 | 71 | 0 | 0.0 | 1.0 | 0.00 | 0.04 | 0.01 | 92 | 1015.4 |
| 20260906173950 | 71 | 0 | 0.0 | 1.0 | 0.00 | 0.04 | 0.01 | 92 | 1015.4 |
| 20260906173450 | 71 | 0 | 0.0 | 1.0 | 0.00 | 0.04 | 0.01 | 92 | 1015.5 |
| 20260906172950 | 71 | 0 | 0.0 | 1.0 | 0.00 | 0.04 | 0.01 | 92 | 1015.4 |
| 20260906172450 | 71 | 0 | 0.0 | 1.0 | 0.00 | 0.04 | 0.01 | 93 | 1015.5 |
| 20260906171950 | 71 | 0 | 0.0 | 1.0 | 0.00 | 0.04 | 0.01 | 94 | 1015.5 |
| 20260906171450 | 70 | 0 | 0.0 | 0.0 | 0.00 | 0.04 | 0.01 | 95 | 1015.4 |
| 20260906170950 | 69 | 0 | 0.0 | 0.0 | 0.00 | 0.04 | 0.01 | 93 | 1015.4 |
| 20260906170452 | 70 | 0 | 0.0 | 0.0 | 0.00 | 0.04 | 0.01 | 92 | 1015.5 |
| 20260906165951 | 70 | 0 | 0.0 | 0.0 | 0.00 | 0.04 | 0.01 | 92 | 1015.4 |
| 20260906165451 | 70 | 0 | 0.0 | 0.0 | 0.00 | 0.04 | 0.01 | 91 | 1015.4 |
| 20260906164952 | 71 | 0 | 0.0 | 2.0 | 0.00 | 0.04 | 0.01 | 91 | 1015.4 |
| 20260906164450 | 71 | 0 | 0.0 | 2.0 | 0.00 | 0.04 | 0.01 | 91 | 1015.5 |
| 20260906163950 | 71 | 0 | 0.0 | 3.0 | 0.00 | 0.04 | 0.01 | 91 | 1015.4 |
| 20260906163452 | 71 | 0 | 0.0 | 3.0 | 0.00 | 0.04 | 0.01 | 91 | 1015.4 |
| 20260906162955 | 71 | 0 | 0.0 | 2.0 | 0.00 | 0.04 | 0.01 | 92 | 1015.5 |
| 20260906162509 | 72 | 0 | 0.0 | 0.0 | 0.00 | 0.04 | 0.01 | 92 | 1015.6 |
| 20260906161954 | 72 | 0 | 0.0 | 2.0 | 0.00 | 0.04 | 0.01 | 92 | 1015.6 |
| 20260906161451 | 72 | 0 | 0.0 | 2.0 | 0.00 | 0.04 | 0.01 | 93 | 1015.6 |
| 20260906160950 | 71 | 0 | 0.0 | 3.0 | 0.00 | 0.04 | 0.01 | 94 | 1015.7 |
| 20260906160450 | 71 | 71 | 1.0 | 3.0 | 0.00 | 0.04 | 0.01 | 93 | 1015.7 |
| 20260906155956 | 71 | 0 | 0.0 | 2.0 | 0.00 | 0.04 | 0.01 | 95 | 1015.7 |
| 20260906155450 | 70 | 0 | 0.0 | 3.0 | 0.00 | 0.04 | 0.01 | 94 | 1015.7 |
| 20260906154952 | 70 | 71 | 1.0 | 4.0 | 0.00 | 0.04 | 0.01 | 93 | 1015.7 |
| 20260906154450 | 70 | 70 | 1.0 | 4.0 | 0.00 | 0.04 | 0.01 | 94 | 1015.7 |
| 20260906153758 | 70 | 70 | 1.0 | 3.0 | 0.00 | 0.04 | 0.01 | 95 | 1015.7 |
| 20260906153320 | 69 | 0 | 0.0 | 3.0 | 0.00 | 0.04 | 0.01 | 96 | 1015.8 |
| 20260906152758 | 69 | 0 | 0.0 | 3.0 | 0.00 | 0.04 | 0.01 | 96 | 1015.7 |
| 20260906152259 | 69 | 0 | 0.0 | 2.0 | 0.00 | 0.04 | 0.01 | 96 | 1015.6 |
| 20260906151421 | 69 | 0 | 0.0 | 3.0 | 0.00 | 0.04 | 0.01 | 96 | 1015.5 |
| 20260906150921 | 69 | 52 | 1.0 | 3.0 | 0.00 | 0.04 | 0.01 | 97 | 1015.5 |
| 20260906150430 | 69 | 0 | 0.0 | 2.0 | 0.00 | 0.04 | 0.01 | 97 | 1015.4 |
| 20260906145921 | 68 | 0 | 0.0 | 2.0 | 0.00 | 0.04 | 0.01 | 97 | 1015.5 |
| 20260906145425 | 68 | 0 | 0.0 | 2.0 | 0.00 | 0.04 | 0.01 | 97 | 1015.5 |
| 20260906144921 | 68 | 0 | 0.0 | 3.0 | 0.00 | 0.04 | 0.01 | 96 | 1015.4 |
| 20260906144421 | 68 | 41 | 1.0 | 3.0 | 0.00 | 0.04 | 0.01 | 97 | 1015.5 |
| 20260906143921 | 67 | 0 | 0.0 | 3.0 | 0.00 | 0.04 | 0.01 | 96 | 1015.5 |
| 20260906143421 | 67 | 0 | 0.0 | 3.0 | 0.00 | 0.04 | 0.01 | 96 | 1015.4 |
| 20260906142921 | 67 | 0 | 0.0 | 3.0 | 0.00 | 0.04 | 0.01 | 96 | 1015.4 |
| 20260906142427 | 68 | 0 | 0.0 | 2.0 | 0.00 | 0.04 | 0.01 | 96 | 1015.5 |
| 20260906141921 | 68 | 0 | 0.0 | 2.0 | 0.00 | 0.04 | 0.01 | 96 | 1015.4 |
| 20260906141424 | 68 | 0 | 0.0 | 0.0 | 0.00 | 0.04 | 0.01 | 96 | 1015.5 |
| 20260906140921 | 68 | 0 | 0.0 | 0.0 | 0.00 | 0.04 | 0.01 | 96 | 1015.4 |
| 20260906140425 | 68 | 0 | 0.0 | 0.0 | 0.00 | 0.04 | 0.01 | 96 | 1015.4 |
| 20260906135922 | 68 | 0 | 0.0 | 0.0 | 0.00 | 0.04 | 0.01 | 96 | 1015.4 |
| 20260906135422 | 68 | 0 | 0.0 | 0.0 | 0.00 | 0.04 | 0.01 | 97 | 1015.3 |
| 20260906134921 | 68 | 0 | 0.0 | 0.0 | 0.00 | 0.04 | 0.01 | 97 | 1015.2 |
| 20260906134421 | 68 | 0 | 0.0 | 0.0 | 0.00 | 0.04 | 0.01 | 97 | 1015.2 |
| 20260906133922 | 68 | 0 | 0.0 | 0.0 | 0.00 | 0.04 | 0.01 | 97 | 1015.2 |
| 20260906133428 | 68 | 0 | 0.0 | 0.0 | 0.00 | 0.04 | 0.01 | 97 | 1015.2 |
| 20260906132923 | 68 | 0 | 0.0 | 0.0 | 0.00 | 0.04 | 0.01 | 97 | 1015.3 |
| 20260906132421 | 68 | 0 | 0.0 | 0.0 | 0.00 | 0.04 | 0.01 | 97 | 1015.2 |
| 20260906131921 | 68 | 0 | 0.0 | 0.0 | 0.00 | 0.04 | 0.01 | 97 | 1015.1 |
| 20260906131423 | 68 | 0 | 0.0 | 0.0 | 0.00 | 0.04 | 0.01 | 97 | 1015.1 |
| 20260906130922 | 67 | 0 | 0.0 | 0.0 | 0.00 | 0.04 | 0.01 | 97 | 1015.0 |
| 20260906130421 | 67 | 0 | 0.0 | 0.0 | 0.00 | 0.04 | 0.01 | 97 | 1015.0 |
| 20260906125922 | 67 | 0 | 0.0 | 0.0 | 0.00 | 0.04 | 0.01 | 97 | 1014.8 |
| 20260906125421 | 67 | 0 | 0.0 | 0.0 | 0.00 | 0.04 | 0.01 | 97 | 1015.1 |
| 20260906124922 | 67 | 0 | 0.0 | 0.0 | 0.00 | 0.04 | 0.01 | 97 | 1015.0 |
| 20260906124421 | 67 | 0 | 0.0 | 0.0 | 0.00 | 0.04 | 0.01 | 97 | 1015.0 |
| 20260906123921 | 67 | 0 | 0.0 | 0.0 | 0.00 | 0.04 | 0.01 | 97 | 1014.9 |
| 20260906123421 | 67 | 0 | 0.0 | 0.0 | 0.00 | 0.04 | 0.01 | 97 | 1014.7 |
| 20260906122922 | 67 | 0 | 0.0 | 0.0 | 0.00 | 0.04 | 0.01 | 97 | 1014.7 |
| 20260906122422 | 67 | 0 | 0.0 | 0.0 | 0.00 | 0.04 | 0.01 | 97 | 1014.7 |
| 20260906121921 | 66 | 0 | 0.0 | 0.0 | 0.00 | 0.04 | 0.01 | 97 | 1014.6 |
| 20260906121426 | 66 | 0 | 0.0 | 0.0 | 0.00 | 0.04 | 0.01 | 97 | 1014.6 |
| 20260906120922 | 66 | 0 | 0.0 | 0.0 | 0.00 | 0.04 | 0.01 | 96 | 1014.6 |
| 20260906120421 | 66 | 0 | 0.0 | 0.0 | 0.00 | 0.04 | 0.01 | 96 | 1014.6 |
| 20260906115921 | 66 | 0 | 0.0 | 0.0 | 0.00 | 0.04 | 0.01 | 96 | 1014.5 |
| 20260906115427 | 66 | 0 | 0.0 | 0.0 | 0.00 | 0.04 | 0.01 | 96 | 1014.5 |
| 20260906114921 | 67 | 0 | 0.0 | 0.0 | 0.00 | 0.04 | 0.01 | 96 | 1014.3 |
| 20260906114421 | 67 | 0 | 0.0 | 0.0 | 0.01 | 0.04 | 0.01 | 96 | 1014.5 |
| 20260906113921 | 67 | 0 | 0.0 | 0.0 | 0.01 | 0.04 | 0.01 | 96 | 1014.5 |
| 20260906113429 | 66 | 0 | 0.0 | 0.0 | 0.01 | 0.04 | 0.01 | 96 | 1014.1 |
| 20260906112921 | 66 | 0 | 0.0 | 0.0 | 0.01 | 0.04 | 0.01 | 96 | 1014.1 |
| 20260906112422 | 66 | 0 | 0.0 | 0.0 | 0.01 | 0.04 | 0.01 | 96 | 1014.1 |
| 20260906111921 | 66 | 0 | 0.0 | 0.0 | 0.01 | 0.04 | 0.01 | 96 | 1014.0 |
| 20260906111428 | 67 | 0 | 0.0 | 0.0 | 0.01 | 0.04 | 0.01 | 96 | 1013.9 |
| 20260906110921 | 67 | 0 | 0.0 | 0.0 | 0.01 | 0.04 | 0.01 | 95 | 1013.9 |
| 20260906110421 | 67 | 0 | 0.0 | 0.0 | 0.01 | 0.04 | 0.01 | 95 | 1014.0 |
| 20260906105921 | 67 | 0 | 0.0 | 0.0 | 0.01 | 0.04 | 0.01 | 95 | 1014.1 |
| 20260906105422 | 67 | 0 | 0.0 | 0.0 | 0.01 | 0.04 | 0.01 | 95 | 1014.1 |
| 20260906104921 | 67 | 0 | 0.0 | 0.0 | 0.01 | 0.04 | 0.01 | 95 | 1014.0 |
| 20260906104421 | 67 | 0 | 0.0 | 0.0 | 0.00 | 0.03 | 0.00 | 95 | 1014.0 |
| 20260906103921 | 67 | 0 | 0.0 | 0.0 | 0.00 | 0.03 | 0.00 | 95 | 1013.9 |
| 20260906103432 | 67 | 0 | 0.0 | 0.0 | 0.00 | 0.03 | 0.00 | 95 | 1013.9 |
| 20260906102921 | 67 | 0 | 0.0 | 2.0 | 0.00 | 0.03 | 0.00 | 95 | 1013.6 |
| 20260906102422 | 67 | 0 | 0.0 | 2.0 | 0.00 | 0.03 | 0.00 | 95 | 1013.5 |
| 20260906101717 | 67 | 0 | 0.0 | 2.0 | 0.00 | 0.03 | 0.00 | 95 | 1013.6 |
| 20260906101216 | 67 | 0 | 0.0 | 3.0 | 0.00 | 0.03 | 0.00 | 95 | 1013.5 |
| 20260906100718 | 67 | 39 | 1.0 | 3.0 | 0.00 | 0.03 | 0.00 | 95 | 1013.5 |
| 20260906100218 | 66 | 39 | 1.0 | 2.0 | 0.00 | 0.03 | 0.00 | 95 | 1013.5 |
| 20260906095716 | 66 | 40 | 1.0 | 3.0 | 0.00 | 0.03 | 0.00 | 95 | 1013.4 |
| 20260906095225 | 67 | 0 | 0.0 | 3.0 | 0.00 | 0.03 | 0.00 | 95 | 1013.2 |
| 20260906094716 | 66 | 40 | 1.0 | 3.0 | 0.00 | 0.03 | 0.00 | 95 | 1013.0 |
| 20260906094216 | 67 | 40 | 1.0 | 5.0 | 0.00 | 0.03 | 0.00 | 95 | 1012.9 |
| 20260906093719 | 67 | 48 | 1.0 | 5.0 | 0.00 | 0.03 | 0.00 | 95 | 1012.9 |
| 20260906093218 | 67 | 356 | 1.0 | 4.0 | 0.00 | 0.03 | 0.00 | 94 | 1012.8 |
| 20260906092717 | 67 | 355 | 1.0 | 4.0 | 0.00 | 0.03 | 0.00 | 94 | 1012.8 |
| 20260906092218 | 67 | 355 | 1.0 | 4.0 | 0.00 | 0.03 | 0.00 | 94 | 1012.8 |
| 20260906091716 | 67 | 337 | 1.0 | 3.0 | 0.00 | 0.03 | 0.00 | 94 | 1012.9 |
| 20260906091218 | 67 | 337 | 1.0 | 3.0 | 0.00 | 0.03 | 0.00 | 94 | 1013.0 |
| 20260906090727 | 67 | 8 | 1.0 | 3.0 | 0.00 | 0.03 | 0.00 | 94 | 1013.1 |
| 20260906090216 | 67 | 9 | 1.0 | 4.0 | 0.00 | 0.03 | 0.00 | 94 | 1012.9 |
| 20260906085722 | 66 | 18 | 2.0 | 4.0 | 0.00 | 0.03 | 0.00 | 94 | 1012.8 |
| 20260906085217 | 66 | 351 | 2.0 | 4.0 | 0.00 | 0.03 | 0.00 | 94 | 1012.6 |
| 20260906084717 | 66 | 341 | 2.0 | 4.0 | 0.00 | 0.03 | 0.00 | 94 | 1012.5 |
| 20260906084130 | 66 | 342 | 2.0 | 4.0 | 0.00 | 0.03 | 0.00 | 94 | 1012.6 |
| 20260906083629 | 66 | 344 | 2.0 | 4.0 | 0.00 | 0.03 | 0.00 | 94 | 1012.7 |
| 20260906083128 | 66 | 344 | 2.0 | 3.0 | 0.00 | 0.03 | 0.00 | 94 | 1012.8 |
| 20260906082630 | 66 | 345 | 2.0 | 3.0 | 0.00 | 0.03 | 0.00 | 94 | 1013.0 |
| 20260906082147 | 66 | 345 | 1.0 | 3.0 | 0.00 | 0.03 | 0.00 | 94 | 1013.1 |
| 20260906081629 | 66 | 346 | 2.0 | 3.0 | 0.00 | 0.03 | 0.00 | 94 | 1012.9 |
| 20260906081129 | 66 | 346 | 1.0 | 3.0 | 0.00 | 0.03 | 0.00 | 94 | 1013.0 |
| 20260906080641 | 66 | 346 | 1.0 | 3.0 | 0.00 | 0.03 | 0.00 | 94 | 1013.0 |
| 20260906080131 | 66 | 346 | 1.0 | 3.0 | 0.00 | 0.03 | 0.00 | 94 | 1013.1 |
| 20260906075601 | 66 | 346 | 1.0 | 2.0 | 0.00 | 0.03 | 0.00 | 94 | 1013.2 |
| 20260906074847 | 66 | 346 | 1.0 | 2.0 | 0.00 | 0.03 | 0.00 | 94 | 1013.1 |
| 20260906074347 | 66 | 0 | 0.0 | 2.0 | 0.00 | 0.03 | 0.00 | 94 | 1013.1 |
| 20260906073847 | 66 | 0 | 0.0 | 0.0 | 0.00 | 0.03 | 0.00 | 93 | 1013.1 |
| 20260906073347 | 66 | 0 | 0.0 | 0.0 | 0.00 | 0.03 | 0.00 | 93 | 1012.9 |
| 20260906072847 | 66 | 0 | 0.0 | 0.0 | 0.00 | 0.03 | 0.00 | 93 | 1013.0 |
| 20260906072347 | 66 | 0 | 0.0 | 0.0 | 0.00 | 0.03 | 0.00 | 93 | 1013.1 |
| 20260906071847 | 66 | 0 | 0.0 | 0.0 | 0.00 | 0.03 | 0.00 | 93 | 1013.1 |
| 20260906071347 | 66 | 0 | 0.0 | 0.0 | 0.00 | 0.03 | 0.00 | 93 | 1013.1 |
| 20260906070857 | 66 | 0 | 0.0 | 0.0 | 0.00 | 0.03 | 0.00 | 92 | 1013.9 |
| 20260906070402 | 66 | 0 | 0.0 | 0.0 | 0.00 | 0.03 | 0.00 | 93 | 1013.9 |
| 20260906065847 | 67 | 0 | 0.0 | 0.0 | 0.00 | 0.03 | 0.00 | 92 | 1014.0 |
| 20260906065347 | 67 | 0 | 0.0 | 2.0 | 0.00 | 0.03 | 0.00 | 92 | 1014.0 |
| 20260906064847 | 67 | 0 | 0.0 | 3.0 | 0.00 | 0.03 | 0.00 | 92 | 1014.0 |
| 20260906064347 | 67 | 346 | 1.0 | 3.0 | 0.00 | 0.03 | 0.00 | 92 | 1014.0 |
| 20260906063858 | 67 | 346 | 1.0 | 3.0 | 0.00 | 0.03 | 0.00 | 92 | 1014.0 |
| 20260906063347 | 67 | 346 | 2.0 | 4.0 | 0.00 | 0.03 | 0.00 | 92 | 1014.1 |
| 20260906062847 | 67 | 346 | 2.0 | 4.0 | 0.00 | 0.03 | 0.00 | 92 | 1014.1 |
| 20260906062347 | 67 | 346 | 2.0 | 4.0 | 0.00 | 0.03 | 0.00 | 92 | 1014.1 |
| 20260906061847 | 67 | 346 | 1.0 | 3.0 | 0.00 | 0.03 | 0.00 | 92 | 1014.2 |
| 20260906061118 | 67 | 348 | 2.0 | 4.0 | 0.00 | 0.03 | 0.00 | 92 | 1014.1 |
| 20260906060615 | 67 | 349 | 2.0 | 4.0 | 0.00 | 0.03 | 0.00 | 92 | 1014.1 |
| 20260906060115 | 67 | 353 | 2.0 | 4.0 | 0.00 | 0.03 | 0.00 | 92 | 1014.2 |
| 20260906055615 | 67 | 355 | 2.0 | 4.0 | 0.00 | 0.03 | 0.00 | 92 | 1014.2 |
| 20260906055124 | 67 | 355 | 2.0 | 4.0 | 0.00 | 0.03 | 0.00 | 92 | 1014.2 |
| 20260906054615 | 67 | 355 | 2.0 | 3.0 | 0.00 | 0.03 | 0.00 | 92 | 1014.2 |
| 20260906054115 | 67 | 351 | 1.0 | 3.0 | 0.00 | 0.03 | 0.00 | 92 | 1014.3 |
| 20260906053636 | 68 | 350 | 1.0 | 3.0 | 0.00 | 0.03 | 0.00 | 92 | 1014.3 |
| 20260906034429 | 68 | 343 | 1.0 | 3.0 | 0.00 | 0.03 | 0.03 | 91 | 1014.6 |
| 20260906033928 | 68 | 343 | 1.0 | 4.0 | 0.00 | 0.03 | 0.03 | 91 | 1014.7 |
| 20260906033428 | 68 | 344 | 1.0 | 4.0 | 0.00 | 0.03 | 0.03 | 91 | 1014.6 |
| 20260906032928 | 68 | 345 | 1.0 | 3.0 | 0.00 | 0.03 | 0.03 | 90 | 1014.7 |
| 20260906032330 | 68 | 347 | 2.0 | 4.0 | 0.00 | 0.03 | 0.03 | 90 | 1014.7 |
| 20260906031827 | 68 | 336 | 2.0 | 4.0 | 0.00 | 0.03 | 0.03 | 90 | 1014.8 |
| 20260906031328 | 68 | 327 | 2.0 | 4.0 | 0.00 | 0.03 | 0.03 | 90 | 1014.6 |
| 20260906030827 | 68 | 334 | 2.0 | 5.0 | 0.00 | 0.03 | 0.03 | 90 | 1014.5 |
| 20260906030327 | 68 | 326 | 2.0 | 5.0 | 0.00 | 0.03 | 0.03 | 90 | 1014.6 |
| 20260906025828 | 68 | 343 | 2.0 | 5.0 | 0.00 | 0.03 | 0.03 | 91 | 1014.7 |
| 20260906025330 | 68 | 353 | 2.0 | 4.0 | 0.00 | 0.03 | 0.03 | 90 | 1014.9 |
| 20260906024547 | 68 | 3 | 2.0 | 5.0 | 0.00 | 0.03 | 0.03 | 90 | 1014.9 |
| 20260906024056 | 69 | 325 | 1.0 | 5.0 | 0.00 | 0.03 | 0.03 | 90 | 1014.8 |
| 20260906023547 | 69 | 341 | 2.0 | 4.0 | 0.00 | 0.03 | 0.03 | 90 | 1014.8 |
| 20260906023029 | 69 | 11 | 2.0 | 4.0 | 0.00 | 0.03 | 0.03 | 90 | 1014.7 |
| 20260906022530 | 69 | 338 | 2.0 | 4.0 | 0.00 | 0.03 | 0.03 | 89 | 1014.7 |
| 20260906022028 | 69 | 333 | 1.0 | 4.0 | 0.00 | 0.03 | 0.03 | 89 | 1014.7 |
| 20260906021529 | 69 | 333 | 2.0 | 4.0 | 0.00 | 0.03 | 0.03 | 89 | 1014.6 |
| 20260906021028 | 69 | 336 | 1.0 | 4.0 | 0.00 | 0.03 | 0.03 | 89 | 1014.5 |
| 20260906020529 | 69 | 343 | 2.0 | 4.0 | 0.00 | 0.03 | 0.03 | 88 | 1014.9 |
| 20260906020029 | 69 | 329 | 1.0 | 4.0 | 0.00 | 0.03 | 0.03 | 88 | 1014.8 |
| 20260906015529 | 69 | 324 | 1.0 | 5.0 | 0.00 | 0.03 | 0.03 | 88 | 1014.6 |
| 20260906015028 | 70 | 17 | 2.0 | 5.0 | 0.00 | 0.03 | 0.03 | 87 | 1014.5 |
| 20260906014529 | 70 | 27 | 1.0 | 5.0 | 0.00 | 0.03 | 0.03 | 87 | 1014.4 |
| 20260906014031 | 70 | 17 | 1.0 | 7.0 | 0.00 | 0.03 | 0.03 | 87 | 1014.3 |
| 20260906013530 | 70 | 15 | 2.0 | 7.0 | 0.00 | 0.03 | 0.03 | 87 | 1014.3 |
| 20260906013032 | 70 | 31 | 1.0 | 4.0 | 0.00 | 0.03 | 0.03 | 88 | 1014.2 |
| 20260906012532 | 69 | 328 | 2.0 | 5.0 | 0.00 | 0.03 | 0.03 | 88 | 1014.2 |
| 20260906012034 | 70 | 340 | 2.0 | 6.0 | 0.00 | 0.03 | 0.03 | 89 | 1014.1 |
| 20260906011531 | 70 | 338 | 2.0 | 6.0 | 0.00 | 0.03 | 0.03 | 89 | 1014.0 |
| 20260906011028 | 70 | 325 | 2.0 | 4.0 | 0.00 | 0.03 | 0.03 | 89 | 1014.1 |
| 20260906010529 | 70 | 325 | 2.0 | 4.0 | 0.00 | 0.03 | 0.03 | 89 | 1014.2 |
| 20260906010029 | 70 | 329 | 2.0 | 4.0 | 0.00 | 0.03 | 0.03 | 89 | 1014.2 |
| 20260906005531 | 70 | 6 | 2.0 | 4.0 | 0.00 | 0.03 | 0.03 | 89 | 1014.1 |
| 20260906005031 | 70 | 328 | 1.0 | 4.0 | 0.00 | 0.03 | 0.03 | 88 | 1013.9 |
| 20260906004505 | 70 | 329 | 1.0 | 7.0 | 0.00 | 0.03 | 0.03 | 88 | 1013.7 |
| 20260906004005 | 70 | 357 | 2.0 | 7.0 | 0.00 | 0.03 | 0.03 | 88 | 1013.5 |
| 20260906003458 | 70 | 14 | 2.0 | 5.0 | 0.00 | 0.03 | 0.03 | 88 | 1013.4 |
| 20260906002958 | 70 | 312 | 1.0 | 4.0 | 0.00 | 0.03 | 0.03 | 88 | 1013.3 |
| 20260906002501 | 70 | 317 | 1.0 | 4.0 | 0.00 | 0.03 | 0.03 | 88 | 1013.3 |
| 20260906001650 | 70 | 304 | 1.0 | 4.0 | 0.00 | 0.03 | 0.03 | 87 | 1013.3 |
| 20260906001151 | 70 | 287 | 1.0 | 4.0 | 0.00 | 0.03 | 0.03 | 87 | 1013.2 |
| 20260906000150 | 71 | 18 | 1.0 | 5.0 | 0.00 | 0.03 | 0.03 | 86 | 1013.2 |
| 20260905235649 | 71 | 331 | 1.0 | 3.0 | 0.00 | 0.03 | 0.03 | 86 | 1013.2 |
| 20260905234823 | 71 | 320 | 1.0 | 4.0 | 0.00 | 0.03 | 0.03 | 86 | 1013.2 |
| 20260905234323 | 71 | 345 | 1.0 | 3.0 | 0.00 | 0.03 | 0.03 | 86 | 1013.1 |
| 20260905233827 | 71 | 8 | 1.0 | 3.0 | 0.00 | 0.03 | 0.03 | 86 | 1013.0 |
| 20260905233323 | 71 | 340 | 1.0 | 3.0 | 0.00 | 0.03 | 0.03 | 86 | 1013.3 |
| 20260905232514 | 71 | 340 | 1.0 | 4.0 | 0.00 | 0.03 | 0.03 | 85 | 1013.0 |
| 20260905232000 | 71 | 331 | 1.0 | 4.0 | 0.00 | 0.03 | 0.03 | 85 | 1013.1 |
| 20260905231501 | 72 | 321 | 1.0 | 4.0 | 0.00 | 0.03 | 0.03 | 85 | 1013.1 |
| 20260905231005 | 72 | 321 | 2.0 | 4.0 | 0.00 | 0.03 | 0.03 | 85 | 1013.2 |
| 20260905230501 | 72 | 319 | 2.0 | 5.0 | 0.00 | 0.03 | 0.03 | 85 | 1013.3 |
| 20260905230001 | 72 | 321 | 2.0 | 5.0 | 0.00 | 0.03 | 0.03 | 84 | 1013.2 |
| 20260905225500 | 72 | 324 | 1.0 | 5.0 | 0.00 | 0.03 | 0.03 | 84 | 1013.2 |
| 20260905225001 | 72 | 336 | 2.0 | 4.0 | 0.00 | 0.03 | 0.03 | 84 | 1013.2 |
| 20260905224458 | 72 | 325 | 1.0 | 4.0 | 0.00 | 0.03 | 0.03 | 83 | 1013.3 |
| 20260905224004 | 72 | 29 | 1.0 | 4.0 | 0.00 | 0.03 | 0.03 | 83 | 1013.2 |
| 20260905223503 | 72 | 2 | 2.0 | 6.0 | 0.00 | 0.03 | 0.03 | 83 | 1013.3 |
| 20260905223000 | 72 | 334 | 2.0 | 6.0 | 0.00 | 0.03 | 0.03 | 83 | 1013.3 |
| 20260905222458 | 72 | 344 | 1.0 | 7.0 | 0.00 | 0.03 | 0.03 | 83 | 1013.3 |
| 20260905222008 | 73 | 27 | 1.0 | 7.0 | 0.00 | 0.03 | 0.03 | 83 | 1013.4 |
| 20260905221458 | 73 | 322 | 2.0 | 6.0 | 0.00 | 0.03 | 0.03 | 83 | 1013.2 |
| 20260905221018 | 73 | 299 | 1.0 | 3.0 | 0.00 | 0.03 | 0.03 | 83 | 1013.3 |
| 20260905220502 | 73 | 350 | 1.0 | 4.0 | 0.00 | 0.03 | 0.03 | 82 | 1013.5 |
| 20260905215959 | 73 | 50 | 1.0 | 4.0 | 0.00 | 0.03 | 0.03 | 82 | 1013.5 |
| 20260905215300 | 73 | 44 | 1.0 | 4.0 | 0.00 | 0.03 | 0.03 | 82 | 1013.5 |
| 20260905214806 | 73 | 51 | 1.0 | 5.0 | 0.00 | 0.03 | 0.03 | 82 | 1013.5 |
| 20260905214258 | 73 | 0 | 0.0 | 5.0 | 0.00 | 0.03 | 0.03 | 82 | 1013.5 |
| 20260905213758 | 73 | 0 | 0.0 | 5.0 | 0.00 | 0.03 | 0.03 | 81 | 1013.4 |
| 20260905213258 | 73 | 3 | 1.0 | 4.0 | 0.00 | 0.03 | 0.03 | 81 | 1013.5 |
| 20260905212758 | 73 | 14 | 1.0 | 4.0 | 0.00 | 0.03 | 0.03 | 81 | 1013.4 |
| 20260905212258 | 73 | 278 | 1.0 | 5.0 | 0.00 | 0.03 | 0.03 | 81 | 1013.4 |
| 20260905211803 | 74 | 330 | 1.0 | 5.0 | 0.00 | 0.03 | 0.03 | 81 | 1013.3 |
| 20260905211258 | 74 | 0 | 0.0 | 4.0 | 0.00 | 0.03 | 0.03 | 81 | 1013.2 |
| 20260905210758 | 74 | 65 | 1.0 | 3.0 | 0.00 | 0.03 | 0.03 | 80 | 1013.2 |
| 20260905210259 | 74 | 0 | 0.0 | 4.0 | 0.00 | 0.03 | 0.03 | 80 | 1013.2 |
| 20260905205758 | 74 | 0 | 0.0 | 4.0 | 0.00 | 0.03 | 0.03 | 80 | 1013.3 |
| 20260905205319 | 74 | 66 | 1.0 | 3.0 | 0.00 | 0.03 | 0.03 | 79 | 1013.2 |
| 20260905204758 | 74 | 0 | 0.0 | 5.0 | 0.00 | 0.03 | 0.03 | 79 | 1013.2 |
| 20260905204300 | 74 | 68 | 1.0 | 5.0 | 0.00 | 0.03 | 0.03 | 79 | 1013.2 |
| 20260905203758 | 74 | 0 | 0.0 | 5.0 | 0.00 | 0.03 | 0.03 | 78 | 1013.3 |
| 20260905203307 | 74 | 0 | 0.0 | 5.0 | 0.00 | 0.03 | 0.03 | 79 | 1013.1 |
| 20260905202803 | 74 | 115 | 1.0 | 4.0 | 0.00 | 0.03 | 0.03 | 80 | 1013.0 |
| 20260905202308 | 74 | 315 | 1.0 | 9.0 | 0.00 | 0.03 | 0.03 | 80 | 1012.9 |
| 20260905201759 | 74 | 326 | 2.0 | 9.0 | 0.00 | 0.03 | 0.03 | 80 | 1012.8 |
| 20260905201301 | 74 | 2 | 2.0 | 6.0 | 0.00 | 0.03 | 0.03 | 80 | 1012.7 |
| 20260905200758 | 73 | 314 | 2.0 | 6.0 | 0.00 | 0.03 | 0.03 | 80 | 1012.4 |
| 20260905200259 | 73 | 353 | 2.0 | 7.0 | 0.00 | 0.03 | 0.03 | 80 | 1012.2 |
| 20260905195758 | 73 | 326 | 3.0 | 7.0 | 0.00 | 0.03 | 0.03 | 79 | 1012.1 |
| 20260905195259 | 73 | 352 | 3.0 | 7.0 | 0.00 | 0.03 | 0.03 | 80 | 1011.9 |
| 20260905194331 | 73 | 314 | 3.0 | 9.0 | 0.00 | 0.03 | 0.03 | 80 | 1011.9 |
| 20260905193831 | 72 | 315 | 3.0 | 9.0 | 0.00 | 0.03 | 0.03 | 81 | 1012.0 |
| 20260905193350 | 72 | 318 | 3.0 | 7.0 | 0.00 | 0.03 | 0.03 | 81 | 1011.9 |
| 20260905192843 | 72 | 320 | 3.0 | 6.0 | 0.00 | 0.03 | 0.03 | 83 | 1011.8 |
| 20260905192331 | 71 | 314 | 3.0 | 6.0 | 0.00 | 0.03 | 0.03 | 83 | 1011.8 |
| 20260905191831 | 71 | 312 | 3.0 | 7.0 | 0.00 | 0.03 | 0.03 | 84 | 1011.9 |